FREGAT DEB, 45888

Orbit data source: Space-Track

FREGAT DEB, 45888 is space debris in LEO originally from a launch on Mon, 18 Jul 2011 UTC launched from the Tyuratam Missile And Space Complex (TTMTR). Debris objects in space refer to the collection of defunct objects orbiting the Earth. Examples of debris include non-operational satellites, rocket bodies, and fragments generated from explosions, collisions, or faulty payload assembly.

Loading next visibility...
Identifier
45888, 2011-037DH
Orbit
LEO
Country
Flag of CISCIS
Related business
Manufacturer
Lavochkin
Mission
Spacecraft
Bus & Motor
Unknown
Mass
Unknown
Launch date (UTC)
2011-07-18 (14 years ago)
Launch vehicle
Unknown
Launch site
Tyuratam Missile And Space Complex (TTMTR)
Object type
Payload
Rocket body
Debris
Shape & HBR
Unknown shape, 0.1 m
Radar Cross Section
Small (<0.1 m²)

Expand to show TLE details & history
Last TLE update: 5 days ago

TLE from 5 days ago
0 FREGAT DEB
1 45888U 11037DH  25287.05667960  .00013402  00000-0  27655-2 0  9995
2 45888  51.4691  59.1501 1819078 216.2012 130.1127 11.44351770217334
Epoch: 2025-10-14T01:21Z
TLE epoch observation values (Epoch: 2025-10-14T01:21:37.117Z)
Latitude
-0.00002°
Longitude
15.89485°
Altitude
3,050.643 km
Speed
6.055 km/s
True Right ascension
03h 56m 36s
True Declination
0° 00' 00"
Sunlit
Object was in full shadow at epoch
Visualization orbit readout
Latitude
Unknown
Longitude
Unknown
Altitude
Unknown
Speed
Unknown
Apparent Right ascension
Unknown
Apparent Declination
Unknown
Sunlit
N/A
Visualization observer readout
Local Sidereal Time
13:26:26
Azimuth
Unknown
Elevation
Unknown
Doppler factor
Unknown
Orbital elements
Apogee altitude
3,453.742 km
Perigee altitude
427.287 km
Semi-major axis
8,318.652 km
Eccentricity
0.18191
Inclination
51.4691°
RAAN
59.1501°
Arg. of periapsis
216.2012°
True anomaly
143.87879°
Mean anomaly
130.1127°
Eccentric anomaly
137.19489°
Mean motion
2.86064 °/min
Orbital period
125.85 mins
BSTAR
0.0027655
Loading maneuver chart data...
Computing Atmospheric mass density...
Loading historical data...
Loading historical data...
Loading historical data...
Loading historical data...
Loading historical data...
Loading historical data...
Loading historical data...

Documentation

Showing up to 5 results
|